Regional Weather Roundup
Issued by NWS

Home | Current Version | Previous Version | Text Only | Print | Product List | Glossary On
Versions: 1 2 3 4 5 6 7 8 9 10 11 12 13 14 15 16 17 18 19 20 21 22 23 24 25 26 27 28 29 30 31 32 33 34 35 36 37 38 39 40 41 42 43 44 45 46 47 48 49 50
000
ASUS45 KABQ 261410
RWRNM
WEATHER ROUNDUP FOR NEW MEXICO
NATIONAL WEATHER SERVICE ALBUQUERQUE NM
800 AM MDT SAT JUL 26 2014

NOTE: "FAIR" MEANS FEW OR NO CLOUDS BELOW 12,000 FEET AGL WITH NO
       SIGNIFICANT WEATHER OR OBSTRUCTIONS TO VISION.

      THIS PRODUCT IS RELEASED AS TWO VERSIONS.  ONE VERSION NEAR
      THE TOP OF THE HOUR CONTAINING PRELIMINARY DATA FROM ALBUQUERQUE
      AND OTHER STATIONS.  A FINAL VERSION WITH ADDITIONAL DATA IS
      ISSUED ABOUT 10 MINUTES AFTER THE HOUR.

NMZ501-503-504-510>518-261500-
NORTHWEST PLATEAU/NORTHCENTRAL MOUNTAINS

CITY           SKY/WX    TMP DP  RH WIND       PRES   REMARKS
FARMINGTON     SUNNY     71  45  39 E5        30.21R
LOS ALAMOS     SUNNY     71  47  43 N5        30.35R
SANTA FE       SUNNY     70  49  47 N12       30.27R
TAOS           SUNNY     64  46  52 N7        30.36R
ANGEL FIRE     FAIR      55  48  77 CALM      30.46S

$$
NMZ402-403-502-505>509-261500-
WESTCENTRAL MOUNTAINS/SOUTHWEST MOUNTAINS

CITY           SKY/WX    TMP DP  RH WIND       PRES   REMARKS
GALLUP         SUNNY     68  45  43 CALM      30.32R
GRANTS         SUNNY     68  48  48 CALM      30.33R
SILVER CITY    MOSUNNY   77  50  38 NW13      30.21R

$$
NMZ407-409-411-412-261500-
SOUTHERN DESERTS

CITY           SKY/WX    TMP DP  RH WIND       PRES   REMARKS
LORDSBURG      FAIR      73  55  53 NW7       30.13R
DEMING         SUNNY     75  57  53 VRB3      30.10R
LAS CRUCES     SUNNY     81  47  31 E3        30.11S
HOLLOMAN AFB   SUNNY     79  46  31 SW3       30.09R
ALAMOGORDO     SUNNY     77  45  31 S5        30.10S
T OR C         SUNNY     82  47  29 NW3       30.14R

$$
NMZ519>523-261500-
CENTRAL VALLEYS/CENTRAL HIGHLANDS

CITY           SKY/WX    TMP DP  RH WIND       PRES   REMARKS
ALBUQUERQUE    MOSUNNY   77  45  32 SE6       30.20R
DOUBLE EAGLE   SUNNY     73  45  35 N7        30.24R
MORIARTY ARPT  FAIR      66  45  46 CALM      30.28R
CLINES CORNERS SUNNY     74  40  29 W12       30.31R
BELEN          FAIR      75  48  38 CALM      30.19R
SOCORRO        FAIR      80  41  24 CALM      30.16R

$$
NMZ524>526-539-540-261500-
SOUTHCENTRAL MOUNTAINS

CITY           SKY/WX    TMP DP  RH WIND       PRES   REMARKS
RUIDOSO        MOSUNNY   73  43  33 CALM      30.32R

$$
NMZ527>531-261500-
NORTHEAST HIGHLANDS/NORTHEAST PLAINS

CITY           SKY/WX    TMP DP  RH WIND       PRES   REMARKS
LAS VEGAS      SUNNY     67  49  52 NE8       30.28R
RATON          SUNNY     66  53  63 NE7       30.23R
CLAYTON        MOSUNNY   78  52  40 N5        30.12R

$$
NMZ532>537-261500-
EASTCENTRAL PLAINS

CITY           SKY/WX    TMP DP  RH WIND       PRES   REMARKS
TUCUMCARI      SUNNY     81  57  43 SW17      30.07R
CANNON AFB     SUNNY     75  59  57 SW9       30.12R
CLOVIS AIRPORT NOT AVBL

$$
NMZ028-029-538-261500-
SOUTHEAST PLAINS

CITY           SKY/WX    TMP DP  RH WIND       PRES   REMARKS
ROSWELL        SUNNY     77  59  53 S14       30.07R
ARTESIA        SUNNY     77  59  53 S13       30.07R
CARLSBAD       SUNNY     78  59  51 SE9       30.04R
HOBBS          SUNNY     75  61  60 SE12      30.10R


$$



USA.gov is the U.S. government's official web portal to all federal, state and local government web resources and services.